Home   Weather   Arth   Past weeks

Flag for Switzerland Past Weather in Arth, Schwyz, Switzerland — Yesterday and Last 2 Weeks

Now
27 °F

Snow. Overcast.


Feels Like: 21 °F
Forecast: 9 / 12 °F
Wind: 6 mph from Northwest

Location: Altdorf

Current Time: Jan 16, 2017 at 11:22:15 pm

Latest Report: Jan 16, 2017 at 10:00 pm


Visibility: 6 mi

Pressure: 30.27 "Hg

Humidity: 68%

Dew Point: 18 °F

Location of ArthLocation

Past Weather in Arth — Graph

°F

Arth Temperature Yesterday

Maximum temperature yesterday: 33 °F (at 2:00 pm)
Minimum temperature yesterday: 26 °F (at 1:00 am)
Average temperature yesterday: 29 °F

High & Low Weather Summary for the Past Weeks

 TemperatureHumidityPressure
High48 °F (Jan 13, 12:00 am)100% (Jan 2, 1:00 am)30.73 "Hg (Jan 2, 1:00 am)
Low8 °F (Jan 7, 5:00 am)48% (Jan 13, 9:00 am)29.50 "Hg (Jan 13, 1:00 am)
Average30 °F81%30.23 "Hg
* Reported Jan 1 9:00 pm — Jan 16 9:00 pm, Arth, Weather by CustomWeather, © 2017

Note: Actual official high and low records may vary slightly from our data, if they occured in-between our weather recording intervals... More about our weather records

Advertising

Arth Weather History for the Previous 24 Hours

Scroll right to see more
 ConditionsComfort  
Time TempWeatherWind HumidityBarometerVisibility
9:00 pm
Mon, Jan 16
28 °FChilly.12 mph72%30.27 "HgN/A
8:00 pm28 °FChilly.8 mph66%30.25 "HgN/A
7:00 pm27 °FOvercast.6 mph63%30.24 "Hg9 mi
6:00 pm29 °FChilly.10 mph57%30.23 "HgN/A
5:00 pm30 °FChilly.9 mph51%30.22 "HgN/A
4:00 pm30 °FLight snow. Partly sunny.13 mph64%30.20 "Hg6 mi
3:00 pm29 °FChilly.12 mph70%30.19 "HgN/A
2:00 pm28 °FChilly.16 mph84%30.19 "HgN/A
1:00 pm29 °FLight snow. Overcast.13 mph77%30.19 "Hg6 mi
12:00 pm28 °FChilly.3 mph86%30.21 "HgN/A
11:00 am28 °FChilly.14 mph86%30.23 "HgN/A
10:00 am29 °FLight snow. Overcast.8 mph70%30.22 "Hg5 mi
9:00 am26 °FChilly.1 mph83%30.22 "HgN/A
8:00 am24 °FCold.2 mph82%30.22 "HgN/A
7:00 am26 °FOvercast.2 mph77%30.21 "Hg9 mi
6:00 am27 °FChilly.1 mph82%30.20 "HgN/A
5:00 am29 °FChilly.2 mph78%30.19 "HgN/A
4:00 am29 °FChilly.2 mph79%30.19 "HgN/A
3:00 am28 °FChilly.3 mph91%30.20 "HgN/A
2:00 am28 °FChilly.2 mph93%30.21 "HgN/A
1:00 am28 °FLight snow. Low clouds.3 mph90%30.22 "Hg6 mi
12:00 am28 °FChilly.3 mph90%30.23 "HgN/A
11:00 pm
Sun, Jan 15
29 °FChilly.6 mph89%30.23 "HgN/A
Weather by CustomWeather, © 2017

See weather overviewHow to use our weather pages